Temp
-13 -12 -13 -12 -13 -13 -12 -12 -12 -11 -12 -12 -12 -12 -12 -13 -13 -14 -15 -15 -15 -16 -16 -17 -18 -18 -18 -19 -19 -19 -19 -19 -19 -19 -19 -19 -18 -19 -19 -19 -18 -18 -18
-13 -12 -12 -13 -13 -13 -13 -12 -12 -12 -12 -12 -12 -12 -13 -13 -13 -14 -15 -15 -15 -16 -16 -17 -18 -18 -18 -18 -19 -19 -19 -19 -19 -19 -19 -19 -19 -19 -19 -19 -19 -19 -19
-13 -12 -13 -13 -13 -13 -13 -12 -12 -12 -12 -12 -12 -13 -13 -13 -14 -14 -15 -15 -16 -16 -17 -18 -18 -18 -19 -19 -19 -19 -19 -19 -19 -19 -19 -19 -19 -19 -19 -19 -19 -19 -19
-13 -13 -13 -13 -13 -13 -13 -13 -12 -12 -12 -12 -13 -13 -13 -13 -14 -15 -15 -16 -16 -16 -17 -18 -18 -18 -19 -19 -19 -19 -19 -19 -19 -20 -19 -19 -19 -19 -19 -19 -20 -19 -20
-13 -13 -13 -13 -13 -13 -13 -13 -13 -12 -12 -13 -13 -13 -13 -14 -14 -15 -15 -16 -16 -17 -17 -18 -19 -19 -19 -20 -20 -19 -19 -20 -20 -20 -20 -20 -20 -20 -20 -20 -20 -20 -21
-13 -13 -13 -13 -13 -13 -13 -13 -13 -12 -13 -13 -12 -13 -13 -14 -14 -15 -15 -16 -17 -17 -18 -19 -19 -20 -20 -20 -20 -20 -20 -20 -19 -20 -20 -20 -20 -20 -20 -20 -21 -21 -22
-13 -13 -13 -13 -13 -13 -13 -13 -13 -13 -13 -13 -13 -13 -14 -14 -14 -15 -15 -16 -17 -18 -19 -19 -20 -20 -20 -20 -20 -20 -20 -20 -20 -21 -21 -21 -21 -21 -21 -22 -22 -22 -22
-12 -12 -13 -13 -13 -13 -12 -14 -14 -13 -13 -13 -13 -13 -14 -14 -14 -15 -15 -16 -17 -18 -19 -20 -20 -20 -20 -20 -21 -21 -21 -21 -21 -21 -21 -22 -22 -22 -22 -23 -23 -23 -22
-12 -13 -13 -13 -13 -13 -13 -13 -13 -13 -13 -13 -13 -14 -14 -14 -15 -15 -16 -17 -18 -18 -19 -19 -20 -20 -20 -20 -21 -21 -21 -21 -22 -22 -22 -23 -23 -23 -23 -24 -24 -23 -23
-12 -13 -13 -14 -13 -13 -12 -14 -13 -13 -13 -13 -13 -14 -14 -15 -15 -16 -16 -17 -18 -18 -19 -19 -20 -20 -20 -21 -21 -21 -22 -22 -23 -23 -23 -24 -24 -24 -25 -24 -24 -24 -23
-13 -13 -13 -13 -13 -13 -13 -13 -13 -13 -13 -13 -14 -14 -14 -15 -16 -16 -17 -18 -19 -20 -20 -20 -20 -20 -21 -21 -21 -22 -22 -23 -24 -24 -24 -25 -25 -25 -25 -24 -24 -24 -24
-14 -13 -13 -13 -14 -13 -13 -13 -13 -13 -13 -13 -14 -14 -14 -16 -16 -16 -17 -18 -19 -20 -20 -20 -20 -21 -21 -22 -22 -23 -23 -24 -24 -25 -25 -25 -25 -25 -25 -25 -24 -24 -23
-13 -14 -14 -13 -13 -13 -13 -13 -14 -13 -13 -14 -14 -14 -15 -16 -16 -17 -18 -19 -20 -20 -20 -20 -20 -21 -22 -22 -23 -23 -24 -24 -24 -25 -25 -25 -25 -25 -25 -25 -24 -23 -23
-14 -14 -14 -13 -13 -13 -14 -14 -14 -13 -13 -14 -14 -14 -15 -16 -16 -17 -18 -19 -19 -20 -20 -20 -21 -21 -22 -22 -23 -23 -23 -23 -24 -24 -24 -24 -25 -25 -25 -24 -24 -23 -23
-14 -14 -14 -13 -13 -13 -14 -14 -14 -13 -14 -14 -14 -15 -15 -15 -17 -17 -18 -19 -20 -20 -20 -21 -21 -22 -23 -23 -23 -23 -23 -23 -24 -24 -24 -24 -25 -25 -24 -24 -23 -23 -23
-14 -14 -13 -14 -13 -13 -14 -14 -14 -14 -14 -14 -14 -15 -15 -16 -17 -18 -19 -19 -20 -20 -20 -21 -21 -22 -22 -23 -23 -23 -23 -23 -24 -24 -24 -24 -24 -24 -24 -23 -23 -23 -23
-14 -14 -14 -14 -13 -14 -14 -14 -14 -14 -14 -14 -15 -15 -16 -17 -18 -19 -19 -20 -20 -20 -20 -21 -22 -22 -23 -23 -23 -23 -23 -23 -24 -24 -24 -24 -24 -24 -23 -23 -23 -23 -22
-15 -14 -14 -13 -14 -14 -15 -14 -14 -14 -14 -15 -15 -16 -16 -17 -18 -19 -20 -20 -20 -20 -21 -21 -22 -22 -23 -23 -23 -23 -23 -23 -23 -23 -23 -23 -23 -23 -23 -22 -22 -22 -22
-14 -14 -14 -14 -14 -14 -16 -15 -14 -15 -15 -15 -15 -16 -17 -18 -18 -19 -20 -20 -20 -20 -21 -22 -22 -22 -23 -23 -23 -22 -23 -23 -23 -23 -23 -23 -23 -23 -22 -22 -22 -22 -21
-14 -14 -14 -13 -13 -15 -14 -14 -15 -15 -15 -15 -16 -17 -18 -18 -19 -20 -20 -20 -20 -20 -21 -22 -22 -22 -22 -22 -22 -22 -22 -22 -22 -22 -22 -22 -23 -22 -22 -22 -22 -22 -21
-13 -13 -14 -14 -14 -14 -14 -15 -14 -14 -15 -16 -17 -17 -17 -18 -19 -19 -20 -20 -20 -21 -22 -22 -22 -22 -22 -22 -22 -22 -22 -22 -22 -22 -22 -22 -22 -22 -21 -21 -21 -21 -21
-14 -14 -13 -14 -15 -15 -14 -14 -14 -15 -15 -16 -17 -17 -18 -19 -19 -20 -20 -20 -21 -21 -22 -22 -22 -22 -22 -22 -22 -22 -22 -22 -22 -22 -21 -21 -21 -21 -21 -21 -21 -21 -21
-14 -14 -14 -15 -15 -15 -15 -14 -15 -15 -16 -16 -16 -18 -19 -19 -20 -20 -20 -21 -21 -22 -22 -22 -22 -22 -22 -22 -22 -22 -22 -21 -21 -21 -21 -21 -21 -21 -21 -21 -21 -21 -21
-14 -14 -15 -16 -16 -15 -15 -15 -15 -16 -17 -16 -17 -18 -19 -19 -20 -20 -20 -21 -21 -21 -22 -22 -22 -22 -22 -22 -22 -21 -21 -21 -21 -21 -21 -21 -21 -21 -21 -21 -21 -21 -21
-13 -15 -16 -16 -16 -16 -15 -15 -16 -16 -16 -17 -18 -18 -19 -20 -20 -20 -21 -21 -21 -21 -22 -22 -22 -22 -22 -22 -21 -21 -21 -21 -21 -21 -21 -21 -21 -21 -21 -20 -20 -20 -21
-15 -15 -17 -17 -17 -16 -16 -16 -16 -16 -17 -18 -18 -19 -19 -20 -20 -21 -21 -21 -21 -22 -22 -22 -22 -22 -21 -21 -21 -21 -21 -21 -20 -20 -21 -21 -20 -20 -20 -20 -20 -20 -20
Height
5810 5811 5810 5810 5807 5803 5800 5797 5793 5790 5787 5782 5777 5771 5763 5757 5752 5745 5738 5730 5723 5717 5709 5704 5698 5695 5690 5687 5683 5678 5673 5670 5668 5664 5659 5655 5652 5649 5646 5642 5638 5635 5632
5806 5805 5806 5805 5802 5798 5795 5793 5789 5785 5781 5776 5771 5765 5758 5752 5746 5739 5732 5725 5717 5710 5704 5698 5692 5687 5684 5680 5676 5671 5666 5662 5658 5655 5650 5646 5643 5640 5636 5632 5628 5623 5619
5803 5802 5800 5798 5796 5792 5791 5787 5784 5780 5775 5771 5765 5759 5753 5746 5740 5732 5725 5717 5710 5703 5697 5691 5685 5682 5677 5673 5668 5664 5659 5654 5649 5645 5641 5637 5633 5629 5625 5620 5616 5611 5606
5797 5797 5796 5792 5791 5789 5785 5783 5779 5775 5770 5766 5760 5754 5747 5741 5734 5726 5718 5711 5704 5698 5690 5685 5679 5674 5671 5666 5660 5655 5650 5646 5642 5636 5631 5626 5622 5617 5612 5607 5603 5596 5591
5792 5791 5788 5787 5786 5783 5779 5777 5774 5770 5765 5761 5755 5748 5742 5735 5728 5720 5713 5705 5699 5691 5685 5679 5674 5668 5662 5656 5652 5647 5642 5637 5633 5627 5621 5616 5610 5605 5599 5593 5588 5583 5577
5783 5783 5782 5781 5780 5778 5774 5771 5767 5763 5759 5754 5748 5742 5736 5729 5722 5715 5707 5699 5692 5685 5679 5673 5668 5663 5656 5650 5645 5639 5632 5627 5623 5617 5610 5604 5598 5593 5587 5581 5577 5572 5568
5771 5774 5776 5775 5773 5770 5766 5762 5760 5758 5753 5747 5742 5736 5730 5723 5716 5709 5702 5694 5685 5678 5674 5668 5663 5655 5648 5641 5636 5629 5623 5616 5610 5605 5598 5591 5584 5579 5573 5568 5565 5562 5560
5765 5765 5766 5767 5765 5762 5758 5751 5752 5752 5746 5742 5735 5730 5724 5717 5710 5702 5695 5687 5678 5672 5667 5661 5656 5650 5642 5634 5627 5620 5613 5606 5599 5593 5585 5577 5570 5566 5561 5558 5556 5554 5552
5757 5758 5759 5758 5758 5756 5752 5746 5748 5746 5741 5736 5730 5724 5718 5711 5704 5696 5688 5680 5672 5665 5661 5654 5648 5642 5636 5628 5620 5612 5603 5595 5586 5578 5571 5564 5558 5555 5552 5550 5549 5548 5546
5749 5750 5749 5750 5747 5749 5745 5740 5742 5739 5735 5730 5725 5719 5713 5705 5697 5689 5681 5673 5665 5659 5654 5647 5641 5633 5625 5615 5607 5600 5591 5582 5573 5564 5558 5553 5548 5545 5544 5544 5543 5541 5540
5743 5743 5744 5745 5743 5742 5740 5736 5736 5732 5729 5725 5720 5713 5707 5699 5690 5683 5675 5667 5659 5652 5645 5638 5632 5624 5616 5606 5597 5588 5578 5568 5560 5553 5548 5544 5541 5541 5540 5539 5537 5536 5535
5736 5736 5739 5739 5737 5736 5733 5733 5731 5727 5722 5718 5713 5707 5701 5693 5684 5676 5668 5661 5653 5645 5638 5631 5624 5617 5607 5596 5587 5576 5566 5558 5551 5546 5543 5540 5539 5537 5536 5534 5532 5531 5531
5727 5730 5732 5732 5732 5731 5728 5727 5725 5721 5716 5712 5706 5700 5693 5685 5678 5671 5662 5653 5647 5640 5633 5624 5616 5607 5597 5587 5577 5568 5560 5554 5548 5543 5540 5538 5536 5534 5532 5530 5528 5527 5526
5719 5721 5723 5725 5724 5722 5722 5721 5719 5715 5711 5705 5698 5693 5687 5680 5672 5663 5656 5650 5643 5634 5625 5617 5608 5598 5587 5578 5570 5563 5558 5552 5546 5542 5538 5536 5533 5530 5528 5526 5524 5524 5522
5710 5712 5713 5708 5713 5715 5714 5713 5712 5709 5704 5698 5693 5687 5679 5673 5665 5658 5651 5642 5634 5626 5617 5609 5602 5592 5580 5571 5566 5561 5554 5549 5544 5540 5537 5534 5531 5528 5525 5523 5521 5520 5519
5705 5707 5706 5710 5705 5707 5707 5708 5706 5702 5698 5693 5686 5679 5673 5667 5659 5650 5643 5636 5629 5621 5612 5603 5594 5585 5576 5569 5563 5557 5552 5546 5542 5538 5535 5532 5528 5525 5522 5520 5518 5517 5515
5695 5700 5701 5702 5702 5702 5703 5702 5700 5697 5691 5687 5680 5673 5667 5660 5652 5645 5639 5631 5624 5616 5608 5597 5587 5579 5573 5567 5561 5556 5550 5544 5540 5536 5533 5529 5526 5523 5520 5518 5516 5513 5511
5690 5694 5696 5695 5697 5696 5696 5697 5694 5690 5685 5680 5674 5668 5661 5655 5648 5640 5633 5626 5619 5611 5601 5592 5582 5576 5571 5565 5560 5554 5548 5543 5538 5535 5531 5527 5523 5520 5517 5515 5512 5510 5507
5682 5686 5687 5689 5689 5689 5689 5690 5688 5684 5679 5674 5669 5663 5655 5649 5643 5637 5630 5622 5615 5607 5596 5586 5578 5574 5569 5563 5557 5552 5546 5541 5537 5533 5529 5525 5521 5517 5514 5511 5508 5505 5503
5677 5679 5681 5683 5683 5684 5687 5686 5684 5680 5676 5670 5664 5658 5652 5646 5640 5632 5625 5618 5610 5601 5591 5582 5577 5572 5567 5561 5555 5550 5544 5540 5535 5530 5526 5522 5518 5514 5511 5508 5505 5502 5498
5672 5673 5675 5676 5680 5684 5683 5684 5679 5676 5673 5667 5660 5653 5646 5641 5634 5626 5619 5613 5605 5596 5587 5580 5576 5571 5565 5559 5553 5547 5542 5537 5532 5528 5524 5520 5516 5512 5508 5505 5501 5498 5495
5661 5667 5670 5672 5678 5679 5676 5675 5673 5670 5667 5660 5653 5648 5643 5636 5628 5624 5618 5610 5601 5592 5584 5579 5574 5569 5563 5557 5551 5545 5539 5535 5530 5525 5521 5516 5512 5508 5504 5500 5497 5493 5489
5656 5662 5665 5668 5671 5671 5669 5669 5666 5662 5658 5654 5651 5646 5639 5633 5626 5621 5614 5605 5596 5588 5580 5577 5572 5566 5560 5554 5549 5543 5538 5533 5528 5523 5518 5513 5509 5504 5500 5496 5492 5488 5484
5653 5657 5660 5663 5665 5665 5666 5665 5664 5660 5654 5651 5647 5641 5635 5629 5623 5618 5609 5600 5592 5584 5578 5575 5570 5564 5557 5552 5546 5541 5536 5531 5526 5520 5516 5511 5506 5501 5497 5492 5488 5484 5480
5649 5652 5657 5660 5661 5664 5663 5663 5660 5655 5652 5648 5643 5638 5632 5627 5620 5613 5605 5595 5587 5581 5577 5573 5567 5562 5556 5550 5545 5540 5534 5528 5523 5518 5513 5508 5503 5498 5495 5491 5486 5482 5478
5646 5648 5653 5656 5658 5659 5660 5658 5655 5652 5648 5644 5639 5634 5628 5623 5617 5609 5600 5591 5584 5579 5575 5571 5565 5560 5554 5549 5543 5537 5531 5526 5521 5515 5510 5505 5501 5498 5493 5489 5485 5482 5478
Wind_Speed
20 22 23 24 25 26 26 25 27 27 28 29 32 34 36 37 39 40 38 38 39 40 37 36 32 30 29 29 28 28 30 31 31 33 34 34 31 31 32 34 35 38 39
20 22 22 22 26 27 28 27 26 26 27 28 32 34 35 37 39 39 38 38 40 40 37 35 34 30 29 29 29 31 32 32 32 31 31 31 32 33 33 34 36 39 40
21 23 23 23 28 28 26 25 24 25 26 28 32 35 36 37 38 39 39 40 41 38 35 34 33 31 30 30 31 30 32 30 30 31 32 34 35 34 35 37 38 40 43
19 24 26 26 29 29 29 26 23 25 25 28 32 35 36 36 37 38 39 40 40 37 35 34 32 32 31 30 31 32 30 31 31 34 36 36 37 39 40 41 42 45 46
22 25 25 26 28 30 32 27 28 24 24 28 32 35 36 36 37 39 40 40 39 37 35 34 33 33 34 35 34 32 33 34 35 36 38 39 42 42 43 45 45 44 39
23 25 28 29 29 30 25 24 22 23 26 29 34 35 36 36 37 39 40 39 39 37 34 34 34 34 35 35 35 36 38 40 38 39 42 44 45 46 46 45 42 35 28
25 27 28 31 29 34 38 27 22 24 26 30 34 36 36 36 37 39 40 40 40 39 35 34 33 35 36 39 38 40 42 44 45 45 45 47 48 46 43 39 32 25 24
24 20 24 30 32 36 41 27 18 24 26 30 34 36 37 37 39 39 42 40 40 39 34 33 32 33 36 38 40 42 44 45 47 49 49 47 43 38 34 29 23 23 19
26 20 27 31 37 37 43 24 19 23 27 31 34 36 37 37 39 40 42 40 38 38 37 35 36 38 38 38 40 42 45 48 50 49 44 40 36 33 26 20 19 18 16
20 27 23 28 25 31 32 12 20 25 28 33 35 36 37 37 39 41 43 39 38 38 37 36 38 40 43 45 47 48 50 51 49 45 40 32 27 21 14 15 19 16 12
23 25 28 27 26 31 33 23 24 25 28 32 34 36 37 37 39 42 43 41 37 37 38 40 40 42 44 47 51 52 52 50 46 38 29 20 13 11 12 15 17 15 14
37 32 35 37 34 33 35 33 25 25 27 31 33 36 37 37 40 43 43 39 37 38 40 40 41 43 44 48 52 51 48 41 30 21 15 11 11 12 14 17 15 13 13
38 32 32 39 40 37 34 32 23 26 28 30 33 35 36 38 40 41 41 39 38 39 40 42 44 46 48 52 50 43 28 22 18 15 12 12 12 13 15 16 12 11 12
34 38 35 42 37 37 28 19 23 25 28 30 32 35 35 38 39 42 40 38 39 41 43 45 46 48 51 51 40 21 23 24 18 14 14 14 15 15 14 11 10 11 12
35 38 45 29 23 21 32 27 22 24 27 30 32 34 37 39 40 41 42 42 42 42 43 46 48 48 48 38 21 25 24 20 17 17 16 15 14 14 14 11 10 11 12
30 33 45 35 22 29 18 16 20 23 27 29 31 33 37 38 41 42 41 41 40 41 44 47 48 46 33 21 25 25 22 19 17 17 16 15 14 13 12 12 13 13 14
28 28 30 35 24 18 15 18 21 24 27 28 31 34 37 38 39 39 39 40 41 42 45 45 46 31 20 25 25 23 22 19 18 17 16 16 15 14 13 14 15 15 16
22 21 30 25 27 21 14 18 22 24 25 28 31 33 36 37 38 39 39 38 40 43 43 45 36 20 24 25 24 23 21 21 19 18 17 16 16 15 16 17 16 16 17
20 28 23 30 30 23 13 17 22 22 25 28 30 31 35 37 36 37 35 37 40 44 41 42 23 23 25 26 25 23 21 20 20 20 19 18 18 18 19 18 18 18 17
26 31 30 25 27 14 13 16 19 20 24 29 31 30 32 33 34 34 36 39 41 43 41 30 20 24 27 25 23 21 21 22 21 20 19 19 19 19 18 19 19 19 20
33 33 28 33 23 15 12 14 16 19 20 23 27 31 34 35 35 36 37 38 40 39 37 20 21 25 26 25 23 23 24 22 21 21 20 19 18 18 19 18 18 18 18
38 34 31 20 14 9 10 15 18 20 23 24 29 32 33 33 33 34 35 37 39 36 30 17 22 25 25 24 24 24 23 22 22 23 22 21 20 20 19 20 20 20 20
29 24 22 15 8 5 11 15 18 21 23 26 28 29 30 31 31 32 34 36 36 35 22 17 23 26 25 26 25 23 23 23 23 22 22 23 23 23 23 22 21 21 21
32 27 18 13 6 8 10 16 18 16 20 25 27 28 30 31 31 31 33 35 34 31 16 19 23 25 26 26 25 25 24 23 22 23 23 23 23 21 20 20 19 19 19
31 27 16 7 4 5 13 15 15 15 18 21 25 27 28 28 29 31 34 33 32 25 15 20 24 25 25 24 25 24 24 24 24 24 24 23 21 19 18 18 19 19 16
24 18 14 10 6 8 12 11 11 15 18 21 24 27 27 26 28 30 33 32 31 18 16 21 25 26 25 25 25 26 25 25 25 24 23 20 17 19 19 18 16 14 14
Wind_Direction
259 284 290 294 298 302 305 311 315 320 323 333 333 331 334 336 334 332 331 329 328 326 325 319 318 317 314 312 310 307 307 307 305 303 301 298 298 297 295 293 291 288 286
270 282 283 289 294 300 301 305 313 318 326 332 330 331 332 333 332 334 333 331 328 327 325 321 319 318 314 312 308 305 306 306 304 303 300 299 299 297 296 295 294 293 291
273 277 279 287 291 294 305 305 310 318 329 327 327 331 331 332 334 334 335 332 329 328 323 320 320 317 314 312 309 307 308 309 308 306 304 302 302 300 299 300 298 297 298
276 278 281 285 294 298 300 299 307 322 327 323 326 328 331 331 334 335 334 332 329 325 322 320 318 314 314 313 309 311 311 310 309 307 304 305 303 302 301 301 302 301 300
271 281 284 293 300 289 300 286 300 315 322 319 326 327 332 331 335 336 335 332 327 323 321 320 317 315 315 314 312 312 312 311 308 306 305 304 304 304 303 302 303 302 300
261 275 281 284 288 298 295 298 302 318 317 320 327 331 329 331 335 336 333 330 326 322 319 319 317 316 313 312 314 314 312 309 309 305 305 305 303 303 301 299 298 297 293
246 260 274 280 290 291 301 289 300 314 316 323 325 332 328 328 331 334 333 329 326 325 321 318 319 316 314 315 315 312 310 309 309 308 306 304 302 300 298 297 295 289 290
252 259 275 275 286 293 293 273 297 310 318 320 324 329 327 326 327 331 332 330 328 325 319 320 318 313 311 311 310 309 308 307 307 306 306 304 301 299 296 292 285 289 282
276 291 285 281 284 296 293 286 303 315 317 319 322 327 325 324 327 328 329 330 327 322 323 323 320 316 312 310 309 308 308 309 308 307 306 303 299 295 292 284 286 286 276
264 284 295 312 290 286 295 300 311 313 315 318 323 326 324 323 325 325 328 328 327 324 322 321 321 317 317 316 314 313 313 311 311 310 308 305 299 293 287 289 297 281 270
272 295 299 298 297 293 296 316 308 309 312 318 324 324 321 323 324 325 328 328 327 321 321 324 323 320 317 314 313 316 315 315 313 310 310 311 307 299 287 300 296 276 277
282 284 281 286 288 292 298 307 298 304 310 319 323 324 321 323 325 327 327 327 326 324 322 322 321 319 318 316 318 319 320 316 313 316 324 324 311 304 299 305 301 279 274
273 268 282 284 284 294 290 294 296 300 314 319 322 324 322 323 325 324 327 329 326 322 323 324 324 323 321 321 324 324 329 339 342 335 330 317 310 304 304 306 300 287 287
276 272 279 273 278 282 290 291 295 305 313 317 325 323 320 321 325 328 329 327 325 327 328 326 326 325 324 325 326 331 330 330 333 334 329 323 319 315 311 309 305 301 297
273 272 267 272 265 260 275 288 291 307 313 320 321 318 322 325 329 328 329 332 330 329 328 326 326 329 325 326 332 333 335 334 334 334 332 329 327 324 325 326 316 307 302
275 279 275 284 242 258 273 283 295 308 310 318 317 319 321 328 329 330 332 331 329 329 328 327 330 329 331 337 339 338 338 338 338 339 338 334 332 328 327 323 318 313 310
273 271 274 277 250 281 275 286 300 304 313 317 316 320 325 329 329 330 330 332 331 329 327 330 332 336 343 343 343 343 343 345 346 343 340 338 338 334 328 321 318 318 314
274 271 277 261 282 267 273 288 298 305 314 315 317 323 325 328 331 331 333 330 328 329 330 333 338 347 346 345 344 343 344 347 346 343 341 342 340 336 331 327 324 321 317
265 263 257 281 286 272 264 287 293 307 314 313 317 324 327 331 330 330 330 330 330 330 334 339 344 346 345 343 342 343 346 346 345 343 339 339 339 335 331 329 327 324 322
254 270 248 278 274 258 258 279 295 310 313 313 321 327 327 327 328 332 333 332 331 333 339 341 343 345 344 346 347 348 348 345 343 341 339 338 334 331 329 328 326 324 323
225 208 255 272 262 247 269 285 303 308 304 313 322 330 331 331 334 337 335 332 333 336 340 342 343 344 346 348 348 346 346 347 345 342 339 337 337 335 334 332 328 324 321
211 233 252 238 236 261 296 305 313 313 315 326 336 332 328 333 338 334 330 332 335 339 342 342 343 344 346 348 346 346 347 346 344 344 345 344 342 338 335 333 331 325 320
208 234 228 221 221 269 288 304 305 317 329 336 331 328 332 336 334 331 330 336 339 342 342 342 345 345 347 348 348 347 347 347 346 347 342 340 340 339 336 333 331 330 327
211 226 212 205 204 266 307 297 300 318 334 331 331 335 337 337 331 330 334 340 342 344 343 345 347 347 348 349 348 349 351 350 346 344 343 342 342 341 341 343 344 344 342
214 215 193 174 231 291 289 290 310 336 335 335 336 338 338 334 331 334 340 343 346 346 347 348 347 350 350 350 351 352 351 349 348 347 348 348 348 352 354 349 346 341 343
216 187 160 185 202 258 279 302 337 336 338 337 338 339 337 334 334 341 344 347 349 350 351 350 350 353 353 354 355 353 350 347 351 354 352 355 3 357 354 355 355 6 17